TRA94R EHEH-LGRP

Flight info

Callsign TRA94R
Flight time N/A
Altitude 35000
Route VELNI DCT ONUNE DCT GMH DCT NEGIX DCT DINKU DCT BESNI DCT GOMIG DCT BEDOX DCT LURID DCT DOBOT DCT VABEK UL603 OLOTA DCT DISOR DCT MES UN139 LURUS UL995 CODIC
Aircraft B738/M-SDE2E3FGHIJ1RWXYZ/LB1

Departure

Time 2026-05-05 05:50
Airport Eindhoven Airport (EHEH)

Arrival

Time N/A
Airport Rhodes International Airport "Diagoras" (LGRP)
Time Latitude Longitude Altitude Speed Heading
2026-05-05 05:39 51.45717 5.38901 46 ft 1 kts 125°
2026-05-05 05:41 51.45732 5.38870 68 ft 4 kts 128°
2026-05-05 05:41 51.45746 5.38834 63 ft 4 kts 115°
2026-05-05 05:41 51.45752 5.38798 68 ft 4 kts 63°
2026-05-05 05:41 51.45734 5.38769 67 ft 4 kts 34°
2026-05-05 05:42 51.45730 5.38765 65 ft 1 kts 35°
2026-05-05 05:44 51.45734 5.38769 67 ft 4 kts 35°
2026-05-05 05:44 51.45792 5.38775 69 ft 13 kts 323°
2026-05-05 05:44 51.45847 5.38654 71 ft 13 kts 305°
2026-05-05 05:44 51.45899 5.38535 71 ft 13 kts 305°
2026-05-05 05:45 51.45950 5.38420 69 ft 13 kts 306°
2026-05-05 05:45 51.45994 5.38314 67 ft 9 kts 291°
2026-05-05 05:45 51.45963 5.38236 70 ft 9 kts 214°
2026-05-05 05:45 51.45895 5.38160 74 ft 16 kts 215°
2026-05-05 05:46 51.45786 5.38037 73 ft 23 kts 214°
2026-05-05 05:46 51.45638 5.37873 69 ft 29 kts 215°
2026-05-05 05:46 51.45458 5.37670 74 ft 34 kts 215°
2026-05-05 05:46 51.45281 5.37473 70 ft 31 kts 215°
2026-05-05 05:47 51.45112 5.37283 74 ft 29 kts 215°
2026-05-05 05:47 51.44955 5.37106 74 ft 27 kts 215°
2026-05-05 05:47 51.44804 5.36936 72 ft 26 kts 214°
2026-05-05 05:47 51.44661 5.36777 70 ft 24 kts 214°
2026-05-05 05:48 51.44530 5.36632 73 ft 23 kts 214°
2026-05-05 05:48 51.44406 5.36493 69 ft 21 kts 215°
2026-05-05 05:48 51.44289 5.36362 69 ft 20 kts 215°
2026-05-05 05:48 51.44199 5.36265 71 ft 9 kts 199°
2026-05-05 05:49 51.44151 5.36312 71 ft 9 kts 127°
2026-05-05 05:49 51.44116 5.36387 67 ft 8 kts 127°
2026-05-05 05:49 51.44120 5.36452 71 ft 8 kts 34°
2026-05-05 05:49 51.44283 5.36633 70 ft 62 kts 35°
2026-05-05 05:50 51.44828 5.37243 75 ft 127 kts 35°
2026-05-05 05:50 51.45687 5.38206 258 ft 163 kts 34°
2026-05-05 05:50 51.46622 5.39251 1070 ft 162 kts 34°
2026-05-05 05:50 51.47524 5.40255 1996 ft 157 kts 35°
2026-05-05 05:51 51.48445 5.41277 2614 ft 163 kts 36°
2026-05-05 05:51 51.49389 5.42338 3306 ft 168 kts 35°
2026-05-05 05:51 51.50410 5.43497 3646 ft 194 kts 38°
2026-05-05 05:51 51.51222 5.45323 3895 ft 215 kts 75°
2026-05-05 05:52 51.51120 5.47790 4350 ft 230 kts 103°
2026-05-05 05:52 51.50684 5.50284 5041 ft 233 kts 103°
2026-05-05 05:52 51.50261 5.52791 5744 ft 233 kts 102°
2026-05-05 05:52 51.49840 5.55325 6470 ft 236 kts 102°
2026-05-05 05:53 51.49421 5.57875 7167 ft 239 kts 102°
2026-05-05 05:53 51.49164 5.59649 7368 ft 254 kts 99°
2026-05-05 05:53 51.48775 5.62551 7674 ft 275 kts 101°
2026-05-05 05:53 51.48410 5.65583 8385 ft 278 kts 92°
2026-05-05 05:54 51.48532 5.68679 9090 ft 281 kts 80°
2026-05-05 05:54 51.48812 5.71803 9810 ft 286 kts 81°
2026-05-05 05:54 51.49096 5.74990 10420 ft 291 kts 80°
2026-05-05 05:54 51.49375 5.78197 11208 ft 290 kts 79°
2026-05-05 05:55 51.49647 5.81415 11888 ft 293 kts 79°
2026-05-05 05:55 51.49920 5.84679 12545 ft 297 kts 81°
2026-05-05 05:55 51.50188 5.87975 13227 ft 299 kts 81°
2026-05-05 05:55 51.50454 5.91295 13895 ft 302 kts 81°
2026-05-05 05:56 51.50722 5.94668 14442 ft 307 kts 81°
2026-05-05 05:56 51.50992 5.98082 15048 ft 310 kts 80°
2026-05-05 05:56 51.51262 6.01526 15672 ft 313 kts 81°
2026-05-05 05:56 51.51535 6.05023 16240 ft 318 kts 82°
2026-05-05 05:57 51.51811 6.08547 16653 ft 329 kts 81°
2026-05-05 05:57 51.52104 6.12294 16765 ft 347 kts 81°
2026-05-05 05:57 51.52408 6.16237 16915 ft 364 kts 82°
2026-05-05 05:57 51.52663 6.20378 17039 ft 381 kts 89°
2026-05-05 05:58 51.52279 6.24650 17442 ft 390 kts 101°
2026-05-05 05:58 51.51709 6.28920 18013 ft 393 kts 101°
2026-05-05 05:58 51.51126 6.33246 18397 ft 400 kts 101°
2026-05-05 05:58 51.50543 6.37630 18858 ft 403 kts 102°
2026-05-05 05:59 51.49905 6.42017 19427 ft 404 kts 108°
2026-05-05 05:59 51.48779 6.46152 19911 ft 407 kts 121°
2026-05-05 05:59 51.47136 6.49859 20409 ft 409 kts 130°
2026-05-05 05:59 51.45301 6.53374 20859 ft 413 kts 131°
2026-05-05 06:00 51.43438 6.56898 21286 ft 417 kts 131°
2026-05-05 06:00 51.41554 6.60461 21726 ft 420 kts 131°
2026-05-05 06:00 51.39665 6.64047 22164 ft 423 kts 132°
2026-05-05 06:00 51.37767 6.67663 22592 ft 426 kts 131°
2026-05-05 06:01 51.35861 6.71309 23040 ft 429 kts 132°
2026-05-05 06:01 51.33936 6.74996 23361 ft 434 kts 132°
2026-05-05 06:01 51.31991 6.78721 23702 ft 438 kts 132°
2026-05-05 06:01 51.30037 6.82465 24100 ft 439 kts 132°
2026-05-05 06:02 51.28083 6.86204 24501 ft 440 kts 133°
2026-05-05 06:02 51.26120 6.89955 24863 ft 441 kts 133°
2026-05-05 06:02 51.24141 6.93729 25203 ft 444 kts 133°
2026-05-05 06:02 51.22155 6.97510 25544 ft 446 kts 133°
2026-05-05 06:03 51.20159 7.01305 25885 ft 448 kts 133°
2026-05-05 06:03 51.18153 7.05113 26238 ft 449 kts 133°
2026-05-05 06:03 51.16136 7.08936 26578 ft 451 kts 134°
2026-05-05 06:03 51.14113 7.12764 26893 ft 453 kts 134°
2026-05-05 06:04 51.12076 7.16614 27157 ft 457 kts 134°
2026-05-05 06:04 51.10028 7.20479 27559 ft 456 kts 134°
2026-05-05 06:04 51.07985 7.24333 27975 ft 455 kts 134°
2026-05-05 06:04 51.05936 7.28189 28240 ft 459 kts 135°
2026-05-05 06:05 51.03878 7.32051 28491 ft 462 kts 135°
2026-05-05 06:05 51.01795 7.35956 28789 ft 464 kts 135°
2026-05-05 06:05 50.99705 7.39871 29111 ft 465 kts 135°
2026-05-05 06:05 50.97606 7.43795 29405 ft 467 kts 135°
2026-05-05 06:06 50.95500 7.47727 29739 ft 467 kts 135°
2026-05-05 06:06 50.93429 7.51591 30164 ft 465 kts 135°
2026-05-05 06:06 50.91341 7.55482 30522 ft 463 kts 135°
2026-05-05 06:06 50.89254 7.59363 30803 ft 463 kts 135°
2026-05-05 06:07 50.87159 7.63250 31080 ft 464 kts 135°
2026-05-05 06:07 50.85066 7.67128 31422 ft 462 kts 136°
2026-05-05 06:07 50.82984 7.70982 31784 ft 461 kts 136°
2026-05-05 06:07 50.80902 7.74829 32115 ft 460 kts 136°
2026-05-05 06:08 50.78822 7.78666 32424 ft 459 kts 136°
2026-05-05 06:08 50.76746 7.82488 32734 ft 458 kts 136°
2026-05-05 06:08 50.74671 7.86305 33050 ft 457 kts 136°
2026-05-05 06:08 50.72600 7.90108 33347 ft 457 kts 136°
2026-05-05 06:09 50.70532 7.93900 33632 ft 456 kts 136°
2026-05-05 06:09 50.68462 7.97690 33906 ft 455 kts 136°
2026-05-05 06:09 50.66400 8.01461 34195 ft 453 kts 136°
2026-05-05 06:09 50.64346 8.05213 34440 ft 452 kts 136°
2026-05-05 06:10 50.62286 8.08967 34633 ft 453 kts 136°
2026-05-05 06:10 50.60229 8.12711 34838 ft 452 kts 136°
2026-05-05 06:10 50.56092 8.20223 34891 ft 454 kts 137°
2026-05-05 06:11 50.51971 8.27691 34885 ft 449 kts 137°
2026-05-05 06:11 50.47894 8.35058 34900 ft 446 kts 137°
2026-05-05 06:12 50.43824 8.42384 34895 ft 445 kts 137°
2026-05-05 06:12 50.39752 8.49700 34889 ft 446 kts 137°
2026-05-05 06:13 50.35636 8.56971 34888 ft 445 kts 139°
2026-05-05 06:13 50.31407 8.64030 34888 ft 445 kts 140°
2026-05-05 06:14 50.27149 8.71069 34880 ft 445 kts 139°
2026-05-05 06:14 50.22903 8.78111 34883 ft 445 kts 139°
2026-05-05 06:15 50.18692 8.85108 34884 ft 445 kts 139°
2026-05-05 06:15 50.14452 8.92140 34877 ft 445 kts 139°
2026-05-05 06:16 50.10216 8.99146 34878 ft 444 kts 139°
2026-05-05 06:16 50.05982 9.06130 34878 ft 443 kts 139°
2026-05-05 06:17 50.01758 9.13076 34878 ft 442 kts 139°
2026-05-05 06:17 49.97536 9.20000 34875 ft 441 kts 139°
2026-05-05 06:18 49.93319 9.26898 34875 ft 440 kts 139°
2026-05-05 06:18 49.89106 9.33769 34884 ft 439 kts 139°
2026-05-05 06:19 49.84885 9.40633 34882 ft 440 kts 139°
2026-05-05 06:19 49.80656 9.47493 34858 ft 440 kts 139°
2026-05-05 06:20 49.76428 9.54333 34857 ft 440 kts 139°
2026-05-05 06:20 49.72200 9.61158 34866 ft 439 kts 139°
2026-05-05 06:21 49.67968 9.67968 34876 ft 439 kts 139°
2026-05-05 06:21 49.63736 9.74761 34875 ft 439 kts 139°
2026-05-05 06:22 49.59498 9.81543 34884 ft 439 kts 139°
2026-05-05 06:22 49.55254 9.88318 34880 ft 439 kts 139°
2026-05-05 06:23 49.51012 9.95073 34868 ft 439 kts 139°
2026-05-05 06:23 49.46769 10.01812 34876 ft 438 kts 139°
2026-05-05 06:24 49.42526 10.08530 34887 ft 438 kts 139°
2026-05-05 06:24 49.38279 10.15240 34883 ft 438 kts 139°
2026-05-05 06:25 49.34061 10.21886 34888 ft 437 kts 139°
2026-05-05 06:25 49.29787 10.28604 34873 ft 437 kts 139°